Check out our new BloomSky Weather System.

Active alerts

Houston, TX
  Details for Houston, TX Areal Flood Advisory


Thunder radar  blitzortung!


Rain radar more information rain snow radar


Visit our other weather sites:

Template documentation
and downloads

And another site



Weather Underground History page Text

Daily Summary for December 07, 2017 Units:  Both    English   Metric
« Previous Day
Next Day »
Daily Weekly Monthly Yearly Custom
  High: Low: Average:
Temperature: TemperatureF °F /  -17.8 °C 32.0 °F /  0 °C 41.5 °F /  5.3 °C
Dew Point: DewpointF °F /  -17.8 °C 31.1 °F /  -0.5 °C 39.3 °F /  4.1 °C
Humidity: Humidity % 75 % 92 %
Wind Speed: WindSpeedMPH mph /  0 km/h - 2.2 mph /  3.5 km/h
Wind Gust: WindSpeedGustMPH mph /  0 km/h - -
Wind:- - West
Pressure: PressureIn in /  0 hPa 30.24 in /  1023.9 hPa -
Precipitation: 0.49 in /  12.45 mm    
Historical Graphs
 
 
Tabular Data for December 07, 2017
Time Temperature Dew Point Pressure Wind Wind Speed Wind Gust Humidity Rainfall Rate (Hourly)
TemperatureF °F /  -17.8 °C DewpointF °F /  -17.8 °C PressureIn in /  0 hPa Calm     Humidity % HourlyPrecipIn in /  0 mm
00:03 42.1 °F /  5.6 °C 40.8 °F /  4.9 °C 30.32 in /  1026.6 hPa NW 1.0 mph /  1.6 km/h 5.0 mph /  8 km/h 95 % 0.01 in /  0.25 mm
00:08 42.1 °F /  5.6 °C 40.8 °F /  4.9 °C 30.32 in /  1026.6 hPa North 1.0 mph /  1.6 km/h 5.0 mph /  8 km/h 95 % 0.01 in /  0.25 mm
00:13 42.1 °F /  5.6 °C 40.5 °F /  4.7 °C 30.32 in /  1026.6 hPa NW 1.0 mph /  1.6 km/h 5.0 mph /  8 km/h 94 % 0.01 in /  0.25 mm
00:18 42.1 °F /  5.6 °C 40.8 °F /  4.9 °C 30.32 in /  1026.6 hPa WNW 2.0 mph /  3.2 km/h 6.0 mph /  9.7 km/h 95 % 0.01 in /  0.25 mm
00:23 42.1 °F /  5.6 °C 40.5 °F /  4.7 °C 30.32 in /  1026.6 hPa North 3.0 mph /  4.8 km/h 6.0 mph /  9.7 km/h 94 % 0.01 in /  0.25 mm
00:28 42.1 °F /  5.6 °C 40.8 °F /  4.9 °C 30.32 in /  1026.6 hPa NNW 2.0 mph /  3.2 km/h 6.0 mph /  9.7 km/h 95 % 0.01 in /  0.25 mm
00:33 41.9 °F /  5.5 °C 40.3 °F /  4.6 °C 30.32 in /  1026.6 hPa NNW 1.0 mph /  1.6 km/h 6.0 mph /  9.7 km/h 94 % 0.01 in /  0.25 mm
00:38 41.9 °F /  5.5 °C 40.3 °F /  4.6 °C 30.31 in /  1026.3 hPa West 1.0 mph /  1.6 km/h 6.0 mph /  9.7 km/h 94 % 0.01 in /  0.25 mm
00:43 41.9 °F /  5.5 °C 40.3 °F /  4.6 °C 30.31 in /  1026.3 hPa North 2.0 mph /  3.2 km/h 4.0 mph /  6.4 km/h 94 % 0.01 in /  0.25 mm
00:49 41.9 °F /  5.5 °C 40.3 °F /  4.6 °C 30.31 in /  1026.3 hPa NNW 1.0 mph /  1.6 km/h 4.0 mph /  6.4 km/h 94 % 0.01 in /  0.25 mm
00:54 41.7 °F /  5.4 °C 40.1 °F /  4.5 °C 30.32 in /  1026.6 hPa NW 2.0 mph /  3.2 km/h 5.0 mph /  8 km/h 94 % 0.01 in /  0.25 mm
00:59 41.7 °F /  5.4 °C 40.1 °F /  4.5 °C 30.32 in /  1026.6 hPa NW 2.0 mph /  3.2 km/h 5.0 mph /  8 km/h 94 % 0.01 in /  0.25 mm
01:04 41.7 °F /  5.4 °C 40.1 °F /  4.5 °C 30.32 in /  1026.6 hPa NNW 2.0 mph /  3.2 km/h 5.0 mph /  8 km/h 94 % 0.00 in /  0 mm
01:09 41.7 °F /  5.4 °C 40.1 °F /  4.5 °C 30.32 in /  1026.6 hPa NNW 1.0 mph /  1.6 km/h 5.0 mph /  8 km/h 94 % 0.00 in /  0 mm
01:14 41.7 °F /  5.4 °C 40.1 °F /  4.5 °C 30.32 in /  1026.6 hPa Calm   4.0 mph /  6.4 km/h 94 % 0.00 in /  0 mm
01:19 41.7 °F /  5.4 °C 40.1 °F /  4.5 °C 30.32 in /  1026.6 hPa WNW 1.0 mph /  1.6 km/h 4.0 mph /  6.4 km/h 94 % 0.00 in /  0 mm
01:24 41.7 °F /  5.4 °C 40.1 °F /  4.5 °C 30.31 in /  1026.3 hPa NNW 1.0 mph /  1.6 km/h 4.0 mph /  6.4 km/h 94 % 0.00 in /  0 mm
01:29 41.7 °F /  5.4 °C 40.1 °F /  4.5 °C 30.30 in /  1026 hPa ENE 2.0 mph /  3.2 km/h 4.0 mph /  6.4 km/h 94 % 0.00 in /  0 mm
01:34 41.5 °F /  5.3 °C 39.9 °F /  4.4 °C 30.30 in /  1026 hPa NNW 1.0 mph /  1.6 km/h 4.0 mph /  6.4 km/h 94 % 0.00 in /  0 mm
01:36 41.5 °F /  5.3 °C 39.9 °F /  4.4 °C 30.30 in /  1026 hPa NNW 4.0 mph /  6.4 km/h 4.0 mph /  6.4 km/h 94 % 0.00 in /  0 mm
01:41 41.5 °F /  5.3 °C 39.9 °F /  4.4 °C 30.30 in /  1026 hPa NNW 1.0 mph /  1.6 km/h 6.0 mph /  9.7 km/h 94 % 0.01 in /  0.25 mm
01:46 41.5 °F /  5.3 °C 39.9 °F /  4.4 °C 30.30 in /  1026 hPa NNE 3.0 mph /  4.8 km/h 6.0 mph /  9.7 km/h 94 % 0.01 in /  0.25 mm
01:51 41.5 °F /  5.3 °C 40.3 °F /  4.6 °C 30.30 in /  1026 hPa NNW 3.0 mph /  4.8 km/h 6.0 mph /  9.7 km/h 95 % 0.01 in /  0.25 mm
01:56 41.5 °F /  5.3 °C 40.3 °F /  4.6 °C 30.30 in /  1026 hPa NNW 2.0 mph /  3.2 km/h 6.0 mph /  9.7 km/h 95 % 0.01 in /  0.25 mm
02:01 41.5 °F /  5.3 °C 39.9 °F /  4.4 °C 30.30 in /  1026 hPa NW 1.0 mph /  1.6 km/h 6.0 mph /  9.7 km/h 94 % 0.01 in /  0.25 mm
02:06 41.4 °F /  5.2 °C 39.7 °F /  4.3 °C 30.30 in /  1026 hPa NW 4.0 mph /  6.4 km/h 5.0 mph /  8 km/h 94 % 0.01 in /  0.25 mm
02:11 41.4 °F /  5.2 °C 39.7 °F /  4.3 °C 30.30 in /  1026 hPa NW 3.0 mph /  4.8 km/h 6.0 mph /  9.7 km/h 94 % 0.01 in /  0.25 mm
02:16 41.4 °F /  5.2 °C 39.6 °F /  4.2 °C 30.30 in /  1026 hPa WNW 2.0 mph /  3.2 km/h 6.0 mph /  9.7 km/h 93 % 0.01 in /  0.25 mm
02:21 41.4 °F /  5.2 °C 39.6 °F /  4.2 °C 30.30 in /  1026 hPa Calm   6.0 mph /  9.7 km/h 93 % 0.01 in /  0.25 mm
02:26 41.4 °F /  5.2 °C 39.6 °F /  4.2 °C 30.29 in /  1025.6 hPa NW 1.0 mph /  1.6 km/h 6.0 mph /  9.7 km/h 93 % 0.01 in /  0.25 mm
02:31 41.4 °F /  5.2 °C 39.6 °F /  4.2 °C 30.29 in /  1025.6 hPa North 3.0 mph /  4.8 km/h 6.0 mph /  9.7 km/h 93 % 0.01 in /  0.25 mm
02:36 41.5 °F /  5.3 °C 39.7 °F /  4.3 °C 30.29 in /  1025.6 hPa NW 1.0 mph /  1.6 km/h 6.0 mph /  9.7 km/h 93 % 0.01 in /  0.25 mm
02:41 41.5 °F /  5.3 °C 39.9 °F /  4.4 °C 30.29 in /  1025.6 hPa NE 2.0 mph /  3.2 km/h 5.0 mph /  8 km/h 94 % 0.00 in /  0 mm
02:46 41.5 °F /  5.3 °C 39.9 °F /  4.4 °C 30.29 in /  1025.6 hPa NNW 2.0 mph /  3.2 km/h 8.0 mph /  12.9 km/h 94 % 0.00 in /  0 mm
02:51 41.5 °F /  5.3 °C 39.9 °F /  4.4 °C 30.29 in /  1025.6 hPa North 2.0 mph /  3.2 km/h 8.0 mph /  12.9 km/h 94 % 0.00 in /  0 mm
02:56 41.7 °F /  5.4 °C 40.1 °F /  4.5 °C 30.28 in /  1025.3 hPa NNW 2.0 mph /  3.2 km/h 8.0 mph /  12.9 km/h 94 % 0.01 in /  0.25 mm
03:01 41.7 °F /  5.4 °C 40.1 °F /  4.5 °C 30.29 in /  1025.6 hPa North 2.0 mph /  3.2 km/h 5.0 mph /  8 km/h 94 % 0.01 in /  0.25 mm
03:06 41.7 °F /  5.4 °C 40.1 °F /  4.5 °C 30.29 in /  1025.6 hPa NW 1.0 mph /  1.6 km/h 4.0 mph /  6.4 km/h 94 % 0.01 in /  0.25 mm
03:12 41.7 °F /  5.4 °C 40.1 °F /  4.5 °C 30.30 in /  1026 hPa Calm   4.0 mph /  6.4 km/h 94 % 0.01 in /  0.25 mm
03:14 41.7 °F /  5.4 °C 40.1 °F /  4.5 °C 30.30 in /  1026 hPa Calm   4.0 mph /  6.4 km/h 94 % 0.01 in /  0.25 mm
03:19 41.7 °F /  5.4 °C 40.1 °F /  4.5 °C 30.30 in /  1026 hPa Calm   4.0 mph /  6.4 km/h 94 % 0.02 in /  0.51 mm
03:24 41.9 °F /  5.5 °C 40.3 °F /  4.6 °C 30.30 in /  1026 hPa NNW 2.0 mph /  3.2 km/h 3.0 mph /  4.8 km/h 94 % 0.02 in /  0.51 mm
03:29 41.9 °F /  5.5 °C 40.3 °F /  4.6 °C 30.30 in /  1026 hPa NW 1.0 mph /  1.6 km/h 3.0 mph /  4.8 km/h 94 % 0.02 in /  0.51 mm
03:34 41.9 °F /  5.5 °C 40.3 °F /  4.6 °C 30.30 in /  1026 hPa NNW 1.0 mph /  1.6 km/h 3.0 mph /  4.8 km/h 94 % 0.02 in /  0.51 mm
03:39 42.1 °F /  5.6 °C 40.5 °F /  4.7 °C 30.30 in /  1026 hPa North 2.0 mph /  3.2 km/h 4.0 mph /  6.4 km/h 94 % 0.03 in /  0.76 mm
03:44 41.9 °F /  5.5 °C 40.1 °F /  4.5 °C 30.30 in /  1026 hPa Calm   4.0 mph /  6.4 km/h 93 % 0.03 in /  0.76 mm
03:49 41.9 °F /  5.5 °C 40.1 °F /  4.5 °C 30.30 in /  1026 hPa NNW 1.0 mph /  1.6 km/h 6.0 mph /  9.7 km/h 93 % 0.03 in /  0.76 mm
03:54 41.9 °F /  5.5 °C 40.1 °F /  4.5 °C 30.30 in /  1026 hPa NW 2.0 mph /  3.2 km/h 6.0 mph /  9.7 km/h 93 % 0.02 in /  0.51 mm
03:59 41.9 °F /  5.5 °C 40.1 °F /  4.5 °C 30.30 in /  1026 hPa North 4.0 mph /  6.4 km/h 6.0 mph /  9.7 km/h 93 % 0.02 in /  0.51 mm
04:04 41.9 °F /  5.5 °C 40.1 °F /  4.5 °C 30.30 in /  1026 hPa NW 2.0 mph /  3.2 km/h 5.0 mph /  8 km/h 93 % 0.02 in /  0.51 mm
04:09 41.9 °F /  5.5 °C 40.1 °F /  4.5 °C 30.30 in /  1026 hPa Calm   5.0 mph /  8 km/h 93 % 0.02 in /  0.51 mm
04:14 41.9 °F /  5.5 °C 40.1 °F /  4.5 °C 30.29 in /  1025.6 hPa NNW 2.0 mph /  3.2 km/h 5.0 mph /  8 km/h 93 % 0.03 in /  0.76 mm
04:19 41.9 °F /  5.5 °C 40.1 °F /  4.5 °C 30.29 in /  1025.6 hPa Calm   3.0 mph /  4.8 km/h 93 % 0.02 in /  0.51 mm
04:24 41.9 °F /  5.5 °C 40.3 °F /  4.6 °C 30.29 in /  1025.6 hPa Calm   3.0 mph /  4.8 km/h 94 % 0.02 in /  0.51 mm
04:29 41.9 °F /  5.5 °C 40.1 °F /  4.5 °C 30.29 in /  1025.6 hPa Calm   3.0 mph /  4.8 km/h 93 % 0.03 in /  0.76 mm
04:34 41.9 °F /  5.5 °C 40.1 °F /  4.5 °C 30.29 in /  1025.6 hPa Calm   4.0 mph /  6.4 km/h 93 % 0.03 in /  0.76 mm
04:39 41.9 °F /  5.5 °C 40.1 °F /  4.5 °C 30.29 in /  1025.6 hPa Calm   4.0 mph /  6.4 km/h 93 % 0.03 in /  0.76 mm
04:44 41.7 °F /  5.4 °C 39.9 °F /  4.4 °C 30.29 in /  1025.6 hPa Calm   4.0 mph /  6.4 km/h 93 % 0.04 in /  1.02 mm
04:49 41.7 °F /  5.4 °C 39.9 °F /  4.4 °C 30.29 in /  1025.6 hPa Calm   4.0 mph /  6.4 km/h 93 % 0.04 in /  1.02 mm
04:54 41.7 °F /  5.4 °C 40.1 °F /  4.5 °C 30.29 in /  1025.6 hPa NNW 2.0 mph /  3.2 km/h 3.0 mph /  4.8 km/h 94 % 0.05 in /  1.27 mm
05:04 41.7 °F /  5.4 °C 40.1 °F /  4.5 °C 30.30 in /  1026 hPa NNW 2.0 mph /  3.2 km/h 3.0 mph /  4.8 km/h 94 % 0.06 in /  1.52 mm
05:10 41.7 °F /  5.4 °C 40.1 °F /  4.5 °C 30.29 in /  1025.6 hPa NNW 1.0 mph /  1.6 km/h 3.0 mph /  4.8 km/h 94 % 0.07 in /  1.78 mm
05:15 41.7 °F /  5.4 °C 40.1 °F /  4.5 °C 30.30 in /  1026 hPa NNW 1.0 mph /  1.6 km/h 3.0 mph /  4.8 km/h 94 % 0.07 in /  1.78 mm
05:20 41.7 °F /  5.4 °C 40.5 °F /  4.7 °C 30.30 in /  1026 hPa NNW 2.0 mph /  3.2 km/h 5.0 mph /  8 km/h 95 % 0.07 in /  1.78 mm
05:25 41.7 °F /  5.4 °C 40.5 °F /  4.7 °C 30.30 in /  1026 hPa NNW 1.0 mph /  1.6 km/h 5.0 mph /  8 km/h 95 % 0.07 in /  1.78 mm
05:30 41.9 °F /  5.5 °C 40.6 °F /  4.8 °C 30.30 in /  1026 hPa Calm   5.0 mph /  8 km/h 95 % 0.07 in /  1.78 mm
05:35 42.1 °F /  5.6 °C 40.8 °F /  4.9 °C 30.30 in /  1026 hPa Calm   5.0 mph /  8 km/h 95 % 0.07 in /  1.78 mm
05:40 42.1 °F /  5.6 °C 40.8 °F /  4.9 °C 30.30 in /  1026 hPa North 1.0 mph /  1.6 km/h 5.0 mph /  8 km/h 95 % 0.06 in /  1.52 mm
05:45 42.3 °F /  5.7 °C 41.0 °F /  5 °C 30.30 in /  1026 hPa NW 1.0 mph /  1.6 km/h 5.0 mph /  8 km/h 95 % 0.07 in /  1.78 mm
05:50 42.4 °F /  5.8 °C 41.2 °F /  5.1 °C 30.30 in /  1026 hPa Calm   5.0 mph /  8 km/h 95 % 0.06 in /  1.52 mm
05:55 42.4 °F /  5.8 °C 40.8 °F /  4.9 °C 30.29 in /  1025.6 hPa NNE 1.0 mph /  1.6 km/h 5.0 mph /  8 km/h 94 % 0.05 in /  1.27 mm
06:00 42.4 °F /  5.8 °C 40.8 °F /  4.9 °C 30.30 in /  1026 hPa Calm   5.0 mph /  8 km/h 94 % 0.06 in /  1.52 mm
06:05 42.4 °F /  5.8 °C 40.8 °F /  4.9 °C 30.29 in /  1025.6 hPa Calm   5.0 mph /  8 km/h 94 % 0.05 in /  1.27 mm
06:10 42.6 °F /  5.9 °C 41.0 °F /  5 °C 30.29 in /  1025.6 hPa Calm   5.0 mph /  8 km/h 94 % 0.05 in /  1.27 mm
06:15 42.6 °F /  5.9 °C 41.0 °F /  5 °C 30.29 in /  1025.6 hPa Calm   4.0 mph /  6.4 km/h 94 % 0.04 in /  1.02 mm
06:20 42.6 °F /  5.9 °C 41.0 °F /  5 °C 30.30 in /  1026 hPa Calm   4.0 mph /  6.4 km/h 94 % 0.05 in /  1.27 mm
06:26 42.8 °F /  6 °C 41.2 °F /  5.1 °C 30.30 in /  1026 hPa Calm   3.0 mph /  4.8 km/h 94 % 0.04 in /  1.02 mm
06:31 42.8 °F /  6 °C 41.5 °F /  5.3 °C 30.30 in /  1026 hPa Calm   3.0 mph /  4.8 km/h 95 % 0.04 in /  1.02 mm
06:36 43.0 °F /  6.1 °C 41.7 °F /  5.4 °C 30.30 in /  1026 hPa Calm   3.0 mph /  4.8 km/h 95 % 0.03 in /  0.76 mm
06:41 43.0 °F /  6.1 °C 41.7 °F /  5.4 °C 30.30 in /  1026 hPa Calm   1.0 mph /  1.6 km/h 95 % 0.03 in /  0.76 mm
06:46 43.0 °F /  6.1 °C 41.7 °F /  5.4 °C 30.30 in /  1026 hPa North 2.0 mph /  3.2 km/h 6.0 mph /  9.7 km/h 95 % 0.02 in /  0.51 mm
06:51 43.2 °F /  6.2 °C 41.9 °F /  5.5 °C 30.30 in /  1026 hPa NNW 2.0 mph /  3.2 km/h 8.0 mph /  12.9 km/h 95 % 0.02 in /  0.51 mm
06:52 43.2 °F /  6.2 °C 41.5 °F /  5.3 °C 30.30 in /  1026 hPa North 2.0 mph /  3.2 km/h 8.0 mph /  12.9 km/h 94 % 0.02 in /  0.51 mm
07:02 43.7 °F /  6.5 °C 41.5 °F /  5.3 °C 30.30 in /  1026 hPa NE 1.0 mph /  1.6 km/h 8.0 mph /  12.9 km/h 92 % 0.01 in /  0.25 mm
07:07 43.7 °F /  6.5 °C 41.5 °F /  5.3 °C 30.30 in /  1026 hPa Calm   8.0 mph /  12.9 km/h 92 % 0.01 in /  0.25 mm
07:12 43.5 °F /  6.4 °C 41.7 °F /  5.4 °C 30.30 in /  1026 hPa Calm   4.0 mph /  6.4 km/h 93 % 0.01 in /  0.25 mm
07:17 43.5 °F /  6.4 °C 41.7 °F /  5.4 °C 30.30 in /  1026 hPa NW 2.0 mph /  3.2 km/h 3.0 mph /  4.8 km/h 93 % 0.02 in /  0.51 mm
07:22 43.5 °F /  6.4 °C 41.7 °F /  5.4 °C 30.30 in /  1026 hPa NNW 1.0 mph /  1.6 km/h 9.0 mph /  14.5 km/h 93 % 0.01 in /  0.25 mm
07:27 43.5 °F /  6.4 °C 41.7 °F /  5.4 °C 30.30 in /  1026 hPa Calm   9.0 mph /  14.5 km/h 93 % 0.01 in /  0.25 mm
07:32 43.5 °F /  6.4 °C 41.7 °F /  5.4 °C 30.30 in /  1026 hPa NW 1.0 mph /  1.6 km/h 9.0 mph /  14.5 km/h 93 % 0.01 in /  0.25 mm
07:37 43.5 °F /  6.4 °C 41.7 °F /  5.4 °C 30.30 in /  1026 hPa Calm   4.0 mph /  6.4 km/h 93 % 0.01 in /  0.25 mm
07:42 43.7 °F /  6.5 °C 42.1 °F /  5.6 °C 30.30 in /  1026 hPa NNE 5.0 mph /  8 km/h 5.0 mph /  8 km/h 94 % 0.01 in /  0.25 mm
07:47 43.5 °F /  6.4 °C 41.7 °F /  5.4 °C 30.30 in /  1026 hPa Calm   5.0 mph /  8 km/h 93 % 0.01 in /  0.25 mm
07:52 43.7 °F /  6.5 °C 41.5 °F /  5.3 °C 30.30 in /  1026 hPa NNW 1.0 mph /  1.6 km/h 8.0 mph /  12.9 km/h 92 % 0.01 in /  0.25 mm
07:57 43.7 °F /  6.5 °C 41.5 °F /  5.3 °C 30.30 in /  1026 hPa NNE 1.0 mph /  1.6 km/h 8.0 mph /  12.9 km/h 92 % 0.02 in /  0.51 mm
08:02 43.7 °F /  6.5 °C 41.5 °F /  5.3 °C 30.30 in /  1026 hPa North 2.0 mph /  3.2 km/h 8.0 mph /  12.9 km/h 92 % 0.02 in /  0.51 mm
08:07 43.5 °F /  6.4 °C 41.4 °F /  5.2 °C 30.29 in /  1025.6 hPa ENE 3.0 mph /  4.8 km/h 9.0 mph /  14.5 km/h 92 % 0.02 in /  0.51 mm
08:17 43.5 °F /  6.4 °C 41.0 °F /  5 °C 30.29 in /  1025.6 hPa NNW 2.0 mph /  3.2 km/h 9.0 mph /  14.5 km/h 91 % 0.02 in /  0.51 mm
08:22 43.5 °F /  6.4 °C 41.0 °F /  5 °C 30.30 in /  1026 hPa NE 2.0 mph /  3.2 km/h 5.0 mph /  8 km/h 91 % 0.02 in /  0.51 mm
08:33 43.5 °F /  6.4 °C 41.0 °F /  5 °C 30.30 in /  1026 hPa Calm   6.0 mph /  9.7 km/h 91 % 0.02 in /  0.51 mm
08:38 43.5 °F /  6.4 °C 41.0 °F /  5 °C 30.31 in /  1026.3 hPa Calm   6.0 mph /  9.7 km/h 91 % 0.03 in /  0.76 mm
08:48 43.7 °F /  6.5 °C 41.2 °F /  5.1 °C 30.32 in /  1026.6 hPa ESE 2.0 mph /  3.2 km/h 3.0 mph /  4.8 km/h 91 % 0.03 in /  0.76 mm
08:53 43.9 °F /  6.6 °C 41.4 °F /  5.2 °C 30.32 in /  1026.6 hPa Calm   4.0 mph /  6.4 km/h 91 % 0.03 in /  0.76 mm
08:58 43.9 °F /  6.6 °C 41.4 °F /  5.2 °C 30.32 in /  1026.6 hPa ESE 4.0 mph /  6.4 km/h 4.0 mph /  6.4 km/h 91 % 0.03 in /  0.76 mm
09:04 44.1 °F /  6.7 °C 41.5 °F /  5.3 °C 30.32 in /  1026.6 hPa Calm   5.0 mph /  8 km/h 91 % 0.03 in /  0.76 mm
09:10 44.1 °F /  6.7 °C 41.5 °F /  5.3 °C 30.32 in /  1026.6 hPa North 1.0 mph /  1.6 km/h 6.0 mph /  9.7 km/h 91 % 0.04 in /  1.02 mm
09:15 44.1 °F /  6.7 °C 41.5 °F /  5.3 °C 30.32 in /  1026.6 hPa Calm   6.0 mph /  9.7 km/h 91 % 0.04 in /  1.02 mm
09:20 44.1 °F /  6.7 °C 41.5 °F /  5.3 °C 30.32 in /  1026.6 hPa Calm   6.0 mph /  9.7 km/h 91 % 0.04 in /  1.02 mm
09:30 44.2 °F /  6.8 °C 41.7 °F /  5.4 °C 30.31 in /  1026.3 hPa Calm   3.0 mph /  4.8 km/h 91 % 0.04 in /  1.02 mm
09:35 44.2 °F /  6.8 °C 41.7 °F /  5.4 °C 30.31 in /  1026.3 hPa Calm   3.0 mph /  4.8 km/h 91 % 0.05 in /  1.27 mm
09:45 44.2 °F /  6.8 °C 41.7 °F /  5.4 °C 30.30 in /  1026 hPa Calm   5.0 mph /  8 km/h 91 % 0.04 in /  1.02 mm
09:50 44.4 °F /  6.9 °C 41.9 °F /  5.5 °C 30.30 in /  1026 hPa Calm   6.0 mph /  9.7 km/h 91 % 0.04 in /  1.02 mm
09:55 44.2 °F /  6.8 °C 41.7 °F /  5.4 °C 30.30 in /  1026 hPa Calm   6.0 mph /  9.7 km/h 91 % 0.04 in /  1.02 mm
10:00 44.2 °F /  6.8 °C 41.7 °F /  5.4 °C 30.30 in /  1026 hPa Calm   6.0 mph /  9.7 km/h 91 % 0.04 in /  1.02 mm
10:05 44.4 °F /  6.9 °C 41.9 °F /  5.5 °C 30.30 in /  1026 hPa Calm   4.0 mph /  6.4 km/h 91 % 0.03 in /  0.76 mm
10:10 44.4 °F /  6.9 °C 41.9 °F /  5.5 °C 30.30 in /  1026 hPa Calm   4.0 mph /  6.4 km/h 91 % 0.03 in /  0.76 mm
10:15 44.4 °F /  6.9 °C 42.3 °F /  5.7 °C 30.30 in /  1026 hPa Calm   2.0 mph /  3.2 km/h 92 % 0.03 in /  0.76 mm
10:20 44.4 °F /  6.9 °C 42.3 °F /  5.7 °C 30.30 in /  1026 hPa Calm   2.0 mph /  3.2 km/h 92 % 0.03 in /  0.76 mm
10:25 44.6 °F /  7 °C 42.4 °F /  5.8 °C 30.30 in /  1026 hPa Calm   2.0 mph /  3.2 km/h 92 % 0.03 in /  0.76 mm
10:30 44.8 °F /  7.1 °C 42.8 °F /  6 °C 30.30 in /  1026 hPa Calm   2.0 mph /  3.2 km/h 93 % 0.02 in /  0.51 mm
10:35 44.8 °F /  7.1 °C 42.8 °F /  6 °C 30.30 in /  1026 hPa Calm   1.0 mph /  1.6 km/h 93 % 0.02 in /  0.51 mm
10:40 45.0 °F /  7.2 °C 43.0 °F /  6.1 °C 30.30 in /  1026 hPa Calm   1.0 mph /  1.6 km/h 93 % 0.03 in /  0.76 mm
10:55 45.1 °F /  7.3 °C 43.5 °F /  6.4 °C 30.30 in /  1026 hPa Calm   2.0 mph /  3.2 km/h 94 % 0.02 in /  0.51 mm
11:00 45.1 °F /  7.3 °C 43.5 °F /  6.4 °C 30.31 in /  1026.3 hPa Calm   2.0 mph /  3.2 km/h 94 % 0.02 in /  0.51 mm
11:05 45.1 °F /  7.3 °C 43.5 °F /  6.4 °C 30.31 in /  1026.3 hPa NNW 2.0 mph /  3.2 km/h 2.0 mph /  3.2 km/h 94 % 0.02 in /  0.51 mm
11:10 45.1 °F /  7.3 °C 43.5 °F /  6.4 °C 30.31 in /  1026.3 hPa NNW 1.0 mph /  1.6 km/h 2.0 mph /  3.2 km/h 94 % 0.03 in /  0.76 mm
11:15 45.1 °F /  7.3 °C 43.2 °F /  6.2 °C 30.32 in /  1026.6 hPa Calm   2.0 mph /  3.2 km/h 93 % 0.02 in /  0.51 mm
11:20 45.1 °F /  7.3 °C 42.6 °F /  5.9 °C 30.32 in /  1026.6 hPa NNE 4.0 mph /  6.4 km/h 8.0 mph /  12.9 km/h 91 % 0.02 in /  0.51 mm
11:30 45.3 °F /  7.4 °C 42.8 °F /  6 °C 30.32 in /  1026.6 hPa West 3.0 mph /  4.8 km/h 8.0 mph /  12.9 km/h 91 % 0.03 in /  0.76 mm
11:35 45.1 °F /  7.3 °C 41.7 °F /  5.4 °C 30.32 in /  1026.6 hPa NNE 5.0 mph /  8 km/h 11.0 mph /  17.7 km/h 88 % 0.03 in /  0.76 mm
11:45 45.0 °F /  7.2 °C 41.0 °F /  5 °C 30.32 in /  1026.6 hPa WNW 1.0 mph /  1.6 km/h 17.0 mph /  27.4 km/h 86 % 0.03 in /  0.76 mm
12:00 44.8 °F /  7.1 °C 41.4 °F /  5.2 °C 30.31 in /  1026.3 hPa North 5.0 mph /  8 km/h 13.0 mph /  20.9 km/h 88 % 0.05 in /  1.27 mm
12:05 44.6 °F /  7 °C 41.9 °F /  5.5 °C 30.30 in /  1026 hPa Calm   10.0 mph /  16.1 km/h 90 % 0.06 in /  1.52 mm
12:10 44.6 °F /  7 °C 41.9 °F /  5.5 °C 30.30 in /  1026 hPa North 3.0 mph /  4.8 km/h 10.0 mph /  16.1 km/h 90 % 0.05 in /  1.27 mm
12:16 44.6 °F /  7 °C 41.9 °F /  5.5 °C 30.30 in /  1026 hPa North 4.0 mph /  6.4 km/h 9.0 mph /  14.5 km/h 90 % 0.06 in /  1.52 mm
12:21 44.6 °F /  7 °C 41.9 °F /  5.5 °C 30.30 in /  1026 hPa NW 1.0 mph /  1.6 km/h 9.0 mph /  14.5 km/h 90 % 0.06 in /  1.52 mm
12:26 44.4 °F /  6.9 °C 41.9 °F /  5.5 °C 30.29 in /  1025.6 hPa NNW 1.0 mph /  1.6 km/h 9.0 mph /  14.5 km/h 91 % 0.06 in /  1.52 mm
12:31 44.4 °F /  6.9 °C 41.9 °F /  5.5 °C 30.29 in /  1025.6 hPa NW 4.0 mph /  6.4 km/h 9.0 mph /  14.5 km/h 91 % 0.06 in /  1.52 mm
12:36 44.4 °F /  6.9 °C 41.9 °F /  5.5 °C 30.29 in /  1025.6 hPa NNE 3.0 mph /  4.8 km/h 9.0 mph /  14.5 km/h 91 % 0.07 in /  1.78 mm
12:41 44.2 °F /  6.8 °C 41.7 °F /  5.4 °C 30.29 in /  1025.6 hPa NW 1.0 mph /  1.6 km/h 9.0 mph /  14.5 km/h 91 % 0.06 in /  1.52 mm
12:46 44.2 °F /  6.8 °C 42.1 °F /  5.6 °C 30.29 in /  1025.6 hPa NW 2.0 mph /  3.2 km/h 8.0 mph /  12.9 km/h 92 % 0.07 in /  1.78 mm
12:51 44.2 °F /  6.8 °C 42.1 °F /  5.6 °C 30.29 in /  1025.6 hPa East 1.0 mph /  1.6 km/h 8.0 mph /  12.9 km/h 92 % 0.06 in /  1.52 mm
12:56 44.2 °F /  6.8 °C 42.3 °F /  5.7 °C 30.29 in /  1025.6 hPa NW 2.0 mph /  3.2 km/h 8.0 mph /  12.9 km/h 93 % 0.06 in /  1.52 mm
13:06 44.4 °F /  6.9 °C 42.4 °F /  5.8 °C 30.29 in /  1025.6 hPa North 4.0 mph /  6.4 km/h 5.0 mph /  8 km/h 93 % 0.06 in /  1.52 mm
13:16 44.4 °F /  6.9 °C 42.4 °F /  5.8 °C 30.29 in /  1025.6 hPa NNW 5.0 mph /  8 km/h 5.0 mph /  8 km/h 93 % 0.05 in /  1.27 mm
13:21 44.6 °F /  7 °C 42.6 °F /  5.9 °C 30.28 in /  1025.3 hPa Calm   8.0 mph /  12.9 km/h 93 % 0.06 in /  1.52 mm
13:26 44.6 °F /  7 °C 42.6 °F /  5.9 °C 30.28 in /  1025.3 hPa Calm   8.0 mph /  12.9 km/h 93 % 0.05 in /  1.27 mm
13:36 44.4 °F /  6.9 °C 42.4 °F /  5.8 °C 30.27 in /  1024.9 hPa NNW 2.0 mph /  3.2 km/h 6.0 mph /  9.7 km/h 93 % 0.04 in /  1.02 mm
13:41 44.4 °F /  6.9 °C 42.8 °F /  6 °C 30.27 in /  1024.9 hPa Calm   6.0 mph /  9.7 km/h 94 % 0.05 in /  1.27 mm
13:51 44.8 °F /  7.1 °C 43.2 °F /  6.2 °C 30.27 in /  1024.9 hPa Calm   3.0 mph /  4.8 km/h 94 % 0.04 in /  1.02 mm
13:56 44.8 °F /  7.1 °C 43.2 °F /  6.2 °C 30.27 in /  1024.9 hPa Calm   2.0 mph /  3.2 km/h 94 % 0.03 in /  0.76 mm
14:01 44.8 °F /  7.1 °C 43.2 °F /  6.2 °C 30.27 in /  1024.9 hPa NNW 1.0 mph /  1.6 km/h 2.0 mph /  3.2 km/h 94 % 0.04 in /  1.02 mm
14:11 44.8 °F /  7.1 °C 43.5 °F /  6.4 °C 30.27 in /  1024.9 hPa Calm   2.0 mph /  3.2 km/h 95 % 0.03 in /  0.76 mm
14:26 45.0 °F /  7.2 °C 43.7 °F /  6.5 °C 30.26 in /  1024.6 hPa NW 2.0 mph /  3.2 km/h 4.0 mph /  6.4 km/h 95 % 0.03 in /  0.76 mm
14:31 45.0 °F /  7.2 °C 43.3 °F /  6.3 °C 30.26 in /  1024.6 hPa NNE 5.0 mph /  8 km/h 8.0 mph /  12.9 km/h 94 % 0.03 in /  0.76 mm
14:36 44.8 °F /  7.1 °C 42.8 °F /  6 °C 30.26 in /  1024.6 hPa NNE 7.0 mph /  11.3 km/h 8.0 mph /  12.9 km/h 93 % 0.03 in /  0.76 mm
14:41 44.4 °F /  6.9 °C 41.2 °F /  5.1 °C 30.25 in /  1024.3 hPa NE 3.0 mph /  4.8 km/h 16.0 mph /  25.7 km/h 88 % 0.02 in /  0.51 mm
14:46 44.2 °F /  6.8 °C 40.6 °F /  4.8 °C 30.25 in /  1024.3 hPa NNW 5.0 mph /  8 km/h 16.0 mph /  25.7 km/h 87 % 0.02 in /  0.51 mm
15:01 43.9 °F /  6.6 °C 39.9 °F /  4.4 °C 30.25 in /  1024.3 hPa NNE 3.0 mph /  4.8 km/h 11.0 mph /  17.7 km/h 86 % 0.01 in /  0.25 mm
15:11 43.5 °F /  6.4 °C 39.9 °F /  4.4 °C 30.25 in /  1024.3 hPa NW 4.0 mph /  6.4 km/h 11.0 mph /  17.7 km/h 87 % 0.01 in /  0.25 mm
15:16 43.3 °F /  6.3 °C 40.1 °F /  4.5 °C 30.25 in /  1024.3 hPa NW 2.0 mph /  3.2 km/h 9.0 mph /  14.5 km/h 88 % 0.01 in /  0.25 mm
15:26 43.3 °F /  6.3 °C 40.3 °F /  4.6 °C 30.25 in /  1024.3 hPa North 1.0 mph /  1.6 km/h 7.0 mph /  11.3 km/h 89 % 0.01 in /  0.25 mm
15:42 43.5 °F /  6.4 °C 40.8 °F /  4.9 °C 30.25 in /  1024.3 hPa NW 1.0 mph /  1.6 km/h 4.0 mph /  6.4 km/h 90 % 0.02 in /  0.51 mm
15:53 43.3 °F /  6.3 °C 40.3 °F /  4.6 °C 30.26 in /  1024.6 hPa NW 2.0 mph /  3.2 km/h 9.0 mph /  14.5 km/h 89 % 0.02 in /  0.51 mm
16:08 43.3 °F /  6.3 °C 40.6 °F /  4.8 °C 30.25 in /  1024.3 hPa NNW 3.0 mph /  4.8 km/h 7.0 mph /  11.3 km/h 90 % 0.01 in /  0.25 mm
16:13 43.2 °F /  6.2 °C 40.5 °F /  4.7 °C 30.25 in /  1024.3 hPa NNW 5.0 mph /  8 km/h 5.0 mph /  8 km/h 90 % 0.01 in /  0.25 mm
16:18 43.2 °F /  6.2 °C 40.5 °F /  4.7 °C 30.25 in /  1024.3 hPa NNW 3.0 mph /  4.8 km/h 10.0 mph /  16.1 km/h 90 % 0.01 in /  0.25 mm
16:23 43.2 °F /  6.2 °C 40.5 °F /  4.7 °C 30.26 in /  1024.6 hPa NNW 1.0 mph /  1.6 km/h 10.0 mph /  16.1 km/h 90 % 0.01 in /  0.25 mm
16:28 43.2 °F /  6.2 °C 40.5 °F /  4.7 °C 30.26 in /  1024.6 hPa NNW 1.0 mph /  1.6 km/h 10.0 mph /  16.1 km/h 90 % 0.01 in /  0.25 mm
16:38 43.2 °F /  6.2 °C 40.1 °F /  4.5 °C 30.26 in /  1024.6 hPa North 4.0 mph /  6.4 km/h 8.0 mph /  12.9 km/h 89 % 0.01 in /  0.25 mm
16:43 43.2 °F /  6.2 °C 40.5 °F /  4.7 °C 30.27 in /  1024.9 hPa NNW 4.0 mph /  6.4 km/h 9.0 mph /  14.5 km/h 90 % 0.01 in /  0.25 mm
16:48 43.2 °F /  6.2 °C 40.5 °F /  4.7 °C 30.26 in /  1024.6 hPa NNE 5.0 mph /  8 km/h 9.0 mph /  14.5 km/h 90 % 0.01 in /  0.25 mm
16:53 43.0 °F /  6.1 °C 40.3 °F /  4.6 °C 30.27 in /  1024.9 hPa NW 2.0 mph /  3.2 km/h 9.0 mph /  14.5 km/h 90 % 0.01 in /  0.25 mm
16:58 43.0 °F /  6.1 °C 40.3 °F /  4.6 °C 30.27 in /  1024.9 hPa North 1.0 mph /  1.6 km/h 7.0 mph /  11.3 km/h 90 % 0.01 in /  0.25 mm
17:08 42.8 °F /  6 °C 40.3 °F /  4.6 °C 30.24 in /  1023.9 hPa Calm   7.0 mph /  11.3 km/h 91 % 0.01 in /  0.25 mm
17:13 42.6 °F /  5.9 °C 40.1 °F /  4.5 °C 30.25 in /  1024.3 hPa Calm   6.0 mph /  9.7 km/h 91 % 0.01 in /  0.25 mm
17:18 42.6 °F /  5.9 °C 40.5 °F /  4.7 °C 30.25 in /  1024.3 hPa Calm   3.0 mph /  4.8 km/h 92 % 0.01 in /  0.25 mm
17:23 42.6 °F /  5.9 °C 40.5 °F /  4.7 °C 30.25 in /  1024.3 hPa Calm   3.0 mph /  4.8 km/h 92 % 0.01 in /  0.25 mm
17:33 42.6 °F /  5.9 °C 40.8 °F /  4.9 °C 30.25 in /  1024.3 hPa Calm   3.0 mph /  4.8 km/h 93 % 0.00 in /  0 mm
17:38 42.6 °F /  5.9 °C 40.8 °F /  4.9 °C 30.25 in /  1024.3 hPa Calm   3.0 mph /  4.8 km/h 93 % 0.00 in /  0 mm
17:53 42.6 °F /  5.9 °C 40.8 °F /  4.9 °C 30.26 in /  1024.6 hPa North 3.0 mph /  4.8 km/h 3.0 mph /  4.8 km/h 93 % 0.00 in /  0 mm
17:58 42.8 °F /  6 °C 41.0 °F /  5 °C 30.26 in /  1024.6 hPa Calm   3.0 mph /  4.8 km/h 93 % 0.00 in /  0 mm
18:00 42.8 °F /  6 °C 41.0 °F /  5 °C 30.26 in /  1024.6 hPa North 2.0 mph /  3.2 km/h 3.0 mph /  4.8 km/h 93 % 0.00 in /  0 mm
18:10 42.8 °F /  6 °C 40.3 °F /  4.6 °C 30.27 in /  1024.9 hPa WNW 1.0 mph /  1.6 km/h 5.0 mph /  8 km/h 91 % 0.00 in /  0 mm
18:15 42.6 °F /  5.9 °C 39.6 °F /  4.2 °C 30.27 in /  1024.9 hPa NW 2.0 mph /  3.2 km/h 6.0 mph /  9.7 km/h 89 % 0.00 in /  0 mm
18:20 42.6 °F /  5.9 °C 38.7 °F /  3.7 °C 30.27 in /  1024.9 hPa NNW 4.0 mph /  6.4 km/h 6.0 mph /  9.7 km/h 86 % 0.00 in /  0 mm
18:25 42.4 °F /  5.8 °C 38.3 °F /  3.5 °C 30.27 in /  1024.9 hPa NNW 2.0 mph /  3.2 km/h 6.0 mph /  9.7 km/h 85 % 0.00 in /  0 mm
18:30 42.4 °F /  5.8 °C 38.3 °F /  3.5 °C 30.27 in /  1024.9 hPa NW 2.0 mph /  3.2 km/h 6.0 mph /  9.7 km/h 85 % 0.00 in /  0 mm
18:35 42.4 °F /  5.8 °C 37.6 °F /  3.1 °C 30.27 in /  1024.9 hPa NW 4.0 mph /  6.4 km/h 11.0 mph /  17.7 km/h 83 % 0.00 in /  0 mm
18:41 42.3 °F /  5.7 °C 36.9 °F /  2.7 °C 30.28 in /  1025.3 hPa WNW 5.0 mph /  8 km/h 12.0 mph /  19.3 km/h 81 % 0.00 in /  0 mm
18:46 42.3 °F /  5.7 °C 37.2 °F /  2.9 °C 30.28 in /  1025.3 hPa NNW 2.0 mph /  3.2 km/h 12.0 mph /  19.3 km/h 82 % 0.00 in /  0 mm
18:51 42.3 °F /  5.7 °C 37.4 °F /  3 °C 30.28 in /  1025.3 hPa NNW 3.0 mph /  4.8 km/h 12.0 mph /  19.3 km/h 83 % 0.00 in /  0 mm
18:56 42.1 °F /  5.6 °C 37.6 °F /  3.1 °C 30.28 in /  1025.3 hPa NNW 2.0 mph /  3.2 km/h 8.0 mph /  12.9 km/h 84 % 0.00 in /  0 mm
19:01 42.1 °F /  5.6 °C 37.6 °F /  3.1 °C 30.28 in /  1025.3 hPa NNW 3.0 mph /  4.8 km/h 7.0 mph /  11.3 km/h 84 % 0.00 in /  0 mm
19:06 41.7 °F /  5.4 °C 37.2 °F /  2.9 °C 30.29 in /  1025.6 hPa NW 3.0 mph /  4.8 km/h 7.0 mph /  11.3 km/h 84 % 0.00 in /  0 mm
19:16 41.5 °F /  5.3 °C 34.5 °F /  1.4 °C 30.29 in /  1025.6 hPa NW 18.0 mph /  29 km/h 18.0 mph /  29 km/h 76 % 0.00 in /  0 mm
19:22 41.4 °F /  5.2 °C 34.0 °F /  1.1 °C 30.30 in /  1026 hPa NNW 8.0 mph /  12.9 km/h 18.0 mph /  29 km/h 75 % 0.00 in /  0 mm
19:27 41.2 °F /  5.1 °C 33.8 °F /  1 °C 30.29 in /  1025.6 hPa NNW 6.0 mph /  9.7 km/h 18.0 mph /  29 km/h 75 % 0.00 in /  0 mm
19:32 40.8 °F /  4.9 °C 33.4 °F /  0.8 °C 30.30 in /  1026 hPa North 8.0 mph /  12.9 km/h 18.0 mph /  29 km/h 75 % 0.00 in /  0 mm
19:42 40.6 °F /  4.8 °C 33.6 °F /  0.9 °C 30.29 in /  1025.6 hPa NW 5.0 mph /  8 km/h 15.0 mph /  24.1 km/h 76 % 0.00 in /  0 mm
19:47 40.6 °F /  4.8 °C 33.6 °F /  0.9 °C 30.29 in /  1025.6 hPa NW 7.0 mph /  11.3 km/h 14.0 mph /  22.5 km/h 76 % 0.00 in /  0 mm
19:57 40.1 °F /  4.5 °C 34.2 °F /  1.2 °C 30.30 in /  1026 hPa North 9.0 mph /  14.5 km/h 10.0 mph /  16.1 km/h 79 % 0.00 in /  0 mm
20:02 39.7 °F /  4.3 °C 34.3 °F /  1.3 °C 30.30 in /  1026 hPa North 5.0 mph /  8 km/h 11.0 mph /  17.7 km/h 81 % 0.00 in /  0 mm
20:07 39.4 °F /  4.1 °C 34.7 °F /  1.5 °C 30.30 in /  1026 hPa NNW 2.0 mph /  3.2 km/h 11.0 mph /  17.7 km/h 83 % 0.00 in /  0 mm
20:12 38.7 °F /  3.7 °C 34.9 °F /  1.6 °C 30.31 in /  1026.3 hPa NW 5.0 mph /  8 km/h 13.0 mph /  20.9 km/h 86 % 0.00 in /  0 mm
20:17 38.1 °F /  3.4 °C 34.9 °F /  1.6 °C 30.30 in /  1026 hPa NW 8.0 mph /  12.9 km/h 16.0 mph /  25.7 km/h 88 % 0.00 in /  0 mm
20:22 37.8 °F /  3.2 °C 34.9 °F /  1.6 °C 30.31 in /  1026.3 hPa NW 6.0 mph /  9.7 km/h 16.0 mph /  25.7 km/h 89 % 0.00 in /  0 mm
20:27 37.6 °F /  3.1 °C 34.9 °F /  1.6 °C 30.31 in /  1026.3 hPa North 7.0 mph /  11.3 km/h 16.0 mph /  25.7 km/h 90 % 0.00 in /  0 mm
20:32 37.2 °F /  2.9 °C 34.9 °F /  1.6 °C 30.30 in /  1026 hPa NW 12.0 mph /  19.3 km/h 15.0 mph /  24.1 km/h 91 % 0.00 in /  0 mm
20:39 37.0 °F /  2.8 °C 34.9 °F /  1.6 °C 30.30 in /  1026 hPa North 2.0 mph /  3.2 km/h 13.0 mph /  20.9 km/h 92 % 0.00 in /  0 mm
20:54 36.5 °F /  2.5 °C 34.9 °F /  1.6 °C 30.30 in /  1026 hPa NW 3.0 mph /  4.8 km/h 13.0 mph /  20.9 km/h 94 % 0.01 in /  0.25 mm
20:59 36.5 °F /  2.5 °C 34.9 °F /  1.6 °C 30.30 in /  1026 hPa Calm   13.0 mph /  20.9 km/h 94 % 0.01 in /  0.25 mm
21:04 36.3 °F /  2.4 °C 34.7 °F /  1.5 °C 30.30 in /  1026 hPa East 4.0 mph /  6.4 km/h 10.0 mph /  16.1 km/h 94 % 0.01 in /  0.25 mm
21:09 36.0 °F /  2.2 °C 34.3 °F /  1.3 °C 30.30 in /  1026 hPa WNW 5.0 mph /  8 km/h 11.0 mph /  17.7 km/h 94 % 0.01 in /  0.25 mm
21:15 35.6 °F /  2 °C 34.0 °F /  1.1 °C 30.30 in /  1026 hPa NW 4.0 mph /  6.4 km/h 12.0 mph /  19.3 km/h 94 % 0.01 in /  0.25 mm
21:23 35.2 °F /  1.8 °C 34.0 °F /  1.1 °C 30.31 in /  1026.3 hPa NW 4.0 mph /  6.4 km/h 17.0 mph /  27.4 km/h 95 % 0.01 in /  0.25 mm
21:32 35.2 °F /  1.8 °C 34.0 °F /  1.1 °C 30.31 in /  1026.3 hPa NNW 4.0 mph /  6.4 km/h 17.0 mph /  27.4 km/h 95 % 0.01 in /  0.25 mm
21:34 35.2 °F /  1.8 °C 34.0 °F /  1.1 °C 30.31 in /  1026.3 hPa NW 2.0 mph /  3.2 km/h 17.0 mph /  27.4 km/h 95 % 0.01 in /  0.25 mm
21:37 35.1 °F /  1.7 °C 33.8 °F /  1 °C 30.32 in /  1026.6 hPa WNW 2.0 mph /  3.2 km/h 13.0 mph /  20.9 km/h 95 % 0.02 in /  0.51 mm
21:40 35.1 °F /  1.7 °C 33.8 °F /  1 °C 30.32 in /  1026.6 hPa NW 3.0 mph /  4.8 km/h 10.0 mph /  16.1 km/h 95 % 0.02 in /  0.51 mm
21:47 34.9 °F /  1.6 °C 33.6 °F /  0.9 °C 30.32 in /  1026.6 hPa NNW 5.0 mph /  8 km/h 12.0 mph /  19.3 km/h 95 % 0.02 in /  0.51 mm
21:55 34.5 °F /  1.4 °C 33.3 °F /  0.7 °C 30.33 in /  1027 hPa NNE 5.0 mph /  8 km/h 13.0 mph /  20.9 km/h 95 % 0.01 in /  0.25 mm
22:00 34.5 °F /  1.4 °C 33.3 °F /  0.7 °C 30.34 in /  1027.3 hPa WNW 4.0 mph /  6.4 km/h 13.0 mph /  20.9 km/h 95 % 0.01 in /  0.25 mm
22:05 34.5 °F /  1.4 °C 33.4 °F /  0.8 °C 30.34 in /  1027.3 hPa NNW 6.0 mph /  9.7 km/h 13.0 mph /  20.9 km/h 96 % 0.01 in /  0.25 mm
22:15 34.2 °F /  1.2 °C 32.9 °F /  0.5 °C 30.33 in /  1027 hPa NNW 10.0 mph /  16.1 km/h 15.0 mph /  24.1 km/h 95 % 0.01 in /  0.25 mm
22:20 34.2 °F /  1.2 °C 32.9 °F /  0.5 °C 30.32 in /  1026.6 hPa NNW 3.0 mph /  4.8 km/h 15.0 mph /  24.1 km/h 95 % 0.01 in /  0.25 mm
22:25 34.0 °F /  1.1 °C 32.7 °F /  0.4 °C 30.32 in /  1026.6 hPa NW 2.0 mph /  3.2 km/h 15.0 mph /  24.1 km/h 95 % 0.01 in /  0.25 mm
22:35 33.6 °F /  0.9 °C 32.4 °F /  0.2 °C 30.32 in /  1026.6 hPa NNW 3.0 mph /  4.8 km/h 12.0 mph /  19.3 km/h 95 % 0.00 in /  0 mm
22:40 33.6 °F /  0.9 °C 32.5 °F /  0.3 °C 30.30 in /  1026 hPa NW 3.0 mph /  4.8 km/h 12.0 mph /  19.3 km/h 96 % 0.00 in /  0 mm
22:45 33.4 °F /  0.8 °C 32.4 °F /  0.2 °C 30.31 in /  1026.3 hPa WNW 4.0 mph /  6.4 km/h 10.0 mph /  16.1 km/h 96 % 0.00 in /  0 mm
22:50 33.4 °F /  0.8 °C 32.4 °F /  0.2 °C 30.31 in /  1026.3 hPa NNW 5.0 mph /  8 km/h 10.0 mph /  16.1 km/h 96 % 0.00 in /  0 mm
22:55 33.3 °F /  0.7 °C 32.2 °F /  0.1 °C 30.31 in /  1026.3 hPa NW 10.0 mph /  16.1 km/h 11.0 mph /  17.7 km/h 96 % 0.00 in /  0 mm
23:00 33.3 °F /  0.7 °C 32.2 °F /  0.1 °C 30.32 in /  1026.6 hPa WNW 2.0 mph /  3.2 km/h 11.0 mph /  17.7 km/h 96 % 0.00 in /  0 mm
23:05 33.1 °F /  0.6 °C 32.0 °F /  0 °C 30.33 in /  1027 hPa NNW 3.0 mph /  4.8 km/h 13.0 mph /  20.9 km/h 96 % 0.00 in /  0 mm
23:10 33.1 °F /  0.6 °C 32.0 °F /  0 °C 30.33 in /  1027 hPa NW 2.0 mph /  3.2 km/h 13.0 mph /  20.9 km/h 96 % 0.00 in /  0 mm
23:15 33.1 °F /  0.6 °C 32.0 °F /  0 °C 30.32 in /  1026.6 hPa North 6.0 mph /  9.7 km/h 13.0 mph /  20.9 km/h 96 % 0.00 in /  0 mm
23:30 32.4 °F /  0.2 °C 31.3 °F /  -0.4 °C 30.32 in /  1026.6 hPa NNW 9.0 mph /  14.5 km/h 16.0 mph /  25.7 km/h 96 % 0.00 in /  0 mm
23:35 32.4 °F /  0.2 °C 31.3 °F /  -0.4 °C 30.30 in /  1026 hPa NW 12.0 mph /  19.3 km/h 16.0 mph /  25.7 km/h 96 % 0.00 in /  0 mm
23:40 32.2 °F /  0.1 °C 31.1 °F /  -0.5 °C 30.32 in /  1026.6 hPa NNW 6.0 mph /  9.7 km/h 13.0 mph /  20.9 km/h 96 % 0.00 in /  0 mm
23:50 32.0 °F /  0 °C 31.3 °F /  -0.4 °C 30.32 in /  1026.6 hPa NNW 3.0 mph /  4.8 km/h 13.0 mph /  20.9 km/h 97 % 0.00 in /  0 mm
23:55 32.2 °F /  0.1 °C 31.5 °F /  -0.3 °C 30.33 in /  1027 hPa NW 4.0 mph /  6.4 km/h 13.0 mph /  20.9 km/h 97 % 0.00 in /  0 mm
Spring, Texas: Villages of Bridgestone
Compliments of Weather Underground - 2.5 mb

Script developed by  Jim McMurry - jmcmurry@mwt.net Adapted for the template by  Wim van der Kuil - Leuven-Template.eu

You find our weather info also at:

UK Metoffice

WeatherCloud

Weather Underground

Mid-South Weather Network

AWEKAS

Citizen Weather Observer Program (CWOP)

HAMweather, WeatherForYou, PWS Weather

Equipment we use:

Weather-station
Davis Vantage Vue

Weather-program
Meteohub

Weather-server
Debian 7.9 x86 (Guest)

Provider
DreamHost

Davis Vantage Vue

Meteohub

Debian 7.9 x86 (Guest)

DreamHost